| time (UTC) | temp C | wind direction | speed KPH | gust KPH | rain 1hr cm | rain 24hr cm | rain mn cm | humidity % | barometer mb |
| 20260906123059 | 22 | 190 | 0.0 | 0.0 | 0.00 | 0.66 | 0.03 | 79 | 1010.3 |
| 20260906121549 | 21 | 190 | 0.0 | 0.0 | 0.00 | 0.66 | 0.03 | 79 | 1010.2 |
| 20260906114600 | 21 | 190 | 0.0 | 0.0 | 0.00 | 0.66 | 0.03 | 79 | 1009.9 |
| 20260906113047 | 21 | 190 | 0.0 | 0.0 | 0.00 | 0.66 | 0.03 | 79 | 1009.8 |
| 20260906111551 | 21 | 190 | 0.0 | 0.0 | 0.00 | 0.66 | 0.03 | 79 | 1009.7 |
| 20260906110046 | 21 | 190 | 0.0 | 0.0 | 0.00 | 0.66 | 0.03 | 79 | 1009.8 |
| 20260906104547 | 21 | 190 | 0.0 | 0.0 | 0.00 | 0.66 | 0.03 | 79 | 1009.8 |
| 20260906103050 | 21 | 190 | 0.0 | 0.0 | 0.00 | 0.66 | 0.03 | 79 | 1009.7 |
| 20260906101544 | 21 | 190 | 0.0 | 0.0 | 0.00 | 0.66 | 0.03 | 79 | 1009.7 |
| 20260906100056 | 21 | 190 | 0.0 | 0.0 | 0.00 | 0.66 | 0.03 | 79 | 1009.7 |
| 20260906094550 | 21 | 190 | 0.0 | 0.0 | 0.00 | 0.66 | 0.03 | 79 | 1009.7 |
| 20260906093043 | 21 | 190 | 0.0 | 0.0 | 0.00 | 0.66 | 0.03 | 79 | 1009.6 |
| 20260906091542 | 21 | 190 | 0.0 | 0.0 | 0.00 | 0.66 | 0.03 | 79 | 1009.7 |
| 20260906090042 | 21 | 190 | 0.0 | 0.0 | 0.00 | 0.66 | 0.03 | 79 | 1009.7 |
| 20260906084542 | 21 | 190 | 0.0 | 0.0 | 0.03 | 0.66 | 0.03 | 79 | 1009.7 |
| 20260906083041 | 21 | 190 | 0.0 | 0.0 | 0.03 | 0.66 | 0.03 | 79 | 1009.6 |
| 20260906081541 | 21 | 190 | 0.0 | 0.0 | 0.03 | 0.66 | 0.03 | 79 | 1009.6 |
| 20260906080043 | 21 | 190 | 0.0 | 0.0 | 0.03 | 0.66 | 0.03 | 79 | 1009.4 |
| 20260906074548 | 21 | 190 | 0.0 | 0.0 | 0.00 | 0.64 | 0.00 | 79 | 1009.5 |
| 20260906073038 | 21 | 190 | 0.0 | 0.0 | 0.00 | 0.64 | 0.00 | 78 | 1009.5 |
| 20260906071537 | 21 | 190 | 0.0 | 0.0 | 0.00 | 0.64 | 0.00 | 78 | 1009.3 |
| 20260906070037 | 21 | 190 | 0.0 | 0.0 | 0.00 | 0.64 | 0.00 | 78 | 1009.4 |
| 20260906064536 | 21 | 190 | 0.0 | 0.0 | 0.00 | 0.64 | 0.00 | 78 | 1009.3 |
| 20260906063038 | 21 | 190 | 0.0 | 0.0 | 0.00 | 0.64 | 0.00 | 78 | 1009.5 |
| 20260906061531 | 21 | 190 | 0.0 | 0.0 | 0.00 | 0.64 | 0.00 | 78 | 1009.8 |
| 20260906060031 | 21 | 190 | 0.0 | 0.0 | 0.00 | 0.64 | 0.00 | 78 | 1010.1 |
| 20260906054548 | 21 | 190 | 0.0 | 0.0 | 0.00 | 0.64 | 0.00 | 78 | 1010.2 |
| 20260906053029 | 21 | 190 | 0.0 | 0.0 | 0.00 | 0.64 | 0.00 | 78 | 1010.6 |
| 20260906051532 | 21 | 190 | 0.0 | 0.0 | 0.00 | 0.64 | 0.00 | 78 | 1010.5 |
| 20260906050030 | 21 | 190 | 0.0 | 0.0 | 0.00 | 0.64 | 0.00 | 77 | 1010.5 |
| 20260906044523 | 21 | 190 | 0.0 | 0.0 | 0.00 | 0.64 | 0.00 | 77 | 1010.4 |
| 20260906043022 | 21 | 190 | 0.0 | 0.0 | 0.00 | 0.64 | 0.00 | 77 | 1010.2 |
| 20260906041520 | 21 | 190 | 0.0 | 0.0 | 0.00 | 0.64 | 0.00 | 77 | 1010.2 |
| 20260906040019 | 21 | 190 | 0.0 | 0.0 | 0.00 | 0.64 | 0.00 | 77 | 1010.3 |
| 20260906034521 | 21 | 190 | 0.0 | 0.0 | 0.00 | 0.64 | 0.64 | 77 | 1010.3 |
| 20260906033017 | 21 | 190 | 0.0 | 0.0 | 0.00 | 0.64 | 0.64 | 77 | 1010.4 |
| 20260906031551 | 21 | 190 | 0.0 | 0.0 | 0.00 | 0.64 | 0.64 | 77 | 1010.5 |
| 20260906030016 | 21 | 190 | 0.0 | 0.0 | 0.00 | 0.64 | 0.64 | 77 | 1010.6 |
| 20260906024535 | 21 | 190 | 0.0 | 0.0 | 0.00 | 0.64 | 0.64 | 77 | 1010.7 |
| 20260906023017 | 21 | 190 | 0.0 | 0.0 | 0.00 | 0.64 | 0.64 | 76 | 1010.8 |
| 20260906021515 | 21 | 190 | 0.0 | 0.0 | 0.00 | 0.64 | 0.64 | 76 | 1010.7 |
| 20260906020014 | 21 | 190 | 0.0 | 0.0 | 0.00 | 0.64 | 0.64 | 76 | 1010.7 |
| 20260906014519 | 21 | 190 | 0.0 | 0.0 | 0.00 | 0.64 | 0.64 | 76 | 1010.9 |
| 20260906013014 | 21 | 190 | 0.0 | 0.0 | 0.00 | 0.64 | 0.64 | 76 | 1010.7 |
| 20260906011513 | 22 | 190 | 0.0 | 0.0 | 0.00 | 0.64 | 0.64 | 76 | 1010.4 |
| 20260906010031 | 22 | 190 | 0.0 | 0.0 | 0.00 | 0.64 | 0.64 | 76 | 1009.9 |
| 20260906004511 | 22 | 190 | 0.0 | 0.0 | 0.00 | 0.64 | 0.64 | 76 | 1009.9 |
| 20260906003012 | 22 | 135 | 0.0 | 0.0 | 0.00 | 0.64 | 0.64 | 76 | 1010.2 |
| 20260906001510 | 22 | 134 | 0.0 | 0.0 | 0.00 | 0.64 | 0.64 | 75 | 1009.8 |
| 20260906000017 | 21 | 224 | 0.0 | 0.0 | 0.03 | 0.64 | 0.64 | 76 | 1008.5 |
| 20260905234509 | 21 | 224 | 0.0 | 0.0 | 0.08 | 0.64 | 0.64 | 76 | 1008.0 |
| 20260905233009 | 21 | 190 | 0.0 | 0.0 | 0.43 | 0.64 | 0.64 | 77 | 1007.8 |
| 20260905231507 | 21 | 190 | 0.0 | 0.0 | 0.64 | 0.64 | 0.64 | 77 | 1008.3 |
| 20260905230011 | 21 | 39 | 0.0 | 3.2 | 0.61 | 0.61 | 0.61 | 79 | 1008.8 |
| 20260905224516 | 22 | 44 | 0.0 | 16.1 | 0.56 | 0.56 | 0.56 | 82 | 1009.6 |
| 20260905223008 | 26 | 44 | 1.6 | 19.3 | 0.15 | 0.15 | 0.15 | 67 | 1009.2 |
| 20260905221506 | 32 | 44 | 3.2 | 22.5 | 0.00 | 0.00 | 0.00 | 42 | 1009.3 |
| 20260905220002 | 36 | 314 | 0.0 | 0.0 | 0.00 | 0.00 | 0.00 | 35 | 1007.7 |
| 20260905214502 | 37 | 190 | 0.0 | 0.0 | 0.00 | 0.00 | 0.00 | 31 | 1007.6 |
| 20260905213102 | 37 | 190 | 0.0 | 0.0 | 0.00 | 0.00 | 0.00 | 30 | 1007.4 |
| 20260905211607 | 38 | 135 | 0.0 | 0.0 | 0.00 | 0.00 | 0.00 | 27 | 1007.6 |
| 20260905204552 | 37 | 314 | 0.0 | 0.0 | 0.00 | 0.00 | 0.00 | 27 | 1008.2 |
| 20260905203047 | 37 | 44 | 0.0 | 0.0 | 0.00 | 0.00 | 0.00 | 32 | 1008.3 |
| 20260905201551 | 36 | 190 | 0.0 | 0.0 | 0.00 | 0.00 | 0.00 | 32 | 1008.5 |
| 20260905200043 | 36 | 190 | 0.0 | 0.0 | 0.00 | 0.00 | 0.00 | 33 | 1008.7 |
| 20260905194539 | 36 | 314 | 0.0 | 0.0 | 0.00 | 0.00 | 0.00 | 35 | 1008.7 |
| 20260905193039 | 36 | 44 | 0.0 | 0.0 | 0.00 | 0.00 | 0.00 | 35 | 1008.9 |
| 20260905191535 | 36 | 334 | 0.0 | 0.0 | 0.00 | 0.00 | 0.00 | 37 | 1009.0 |
| 20260905190033 | 35 | 314 | 0.0 | 0.0 | 0.00 | 0.00 | 0.00 | 38 | 1009.3 |
| 20260905184531 | 35 | 44 | 0.0 | 0.0 | 0.00 | 0.00 | 0.00 | 38 | 1009.6 |
| 20260905183033 | 35 | 314 | 0.0 | 0.0 | 0.00 | 0.00 | 0.00 | 39 | 1009.7 |
| 20260905181526 | 35 | 314 | 0.0 | 0.0 | 0.00 | 0.00 | 0.00 | 39 | 1010.0 |
| 20260905180022 | 34 | 190 | 0.0 | 0.0 | 0.00 | 0.00 | 0.00 | 42 | 1010.1 |
| 20260905174522 | 34 | 44 | 0.0 | 0.0 | 0.00 | 0.00 | 0.00 | 44 | 1010.3 |
| 20260905173046 | 34 | 190 | 0.0 | 0.0 | 0.00 | 0.00 | 0.00 | 42 | 1010.6 |
| 20260905171515 | 34 | 314 | 0.0 | 1.6 | 0.00 | 0.00 | 0.00 | 43 | 1010.6 |
| 20260905170013 | 34 | 314 | 0.0 | 3.2 | 0.00 | 0.00 | 0.00 | 44 | 1010.7 |
| 20260905164510 | 33 | 314 | 0.0 | 6.4 | 0.00 | 0.00 | 0.00 | 45 | 1011.0 |
| 20260905163009 | 33 | 190 | 0.0 | 4.8 | 0.00 | 0.00 | 0.00 | 46 | 1011.1 |
| 20260905161505 | 33 | 190 | 0.0 | 0.0 | 0.00 | 0.00 | 0.00 | 48 | 1011.4 |
| 20260905160004 | 33 | 190 | 0.0 | 0.0 | 0.00 | 0.00 | 0.00 | 47 | 1011.5 |
| 20260905154502 | 32 | 24 | 0.0 | 0.0 | 0.00 | 0.00 | 0.00 | 50 | 1011.7 |
| 20260905153058 | 32 | 45 | 0.0 | 0.0 | 0.00 | 0.00 | 0.00 | 51 | 1011.9 |
| 20260905151604 | 32 | 314 | 0.0 | 0.0 | 0.00 | 0.00 | 0.00 | 50 | 1012.0 |
| 20260905150058 | 32 | 44 | 0.0 | 0.0 | 0.00 | 0.00 | 0.00 | 52 | 1012.0 |
| 20260905144559 | 31 | 44 | 0.0 | 0.0 | 0.00 | 0.00 | 0.00 | 52 | 1012.0 |
| 20260905143056 | 32 | 44 | 0.0 | 0.0 | 0.00 | 0.00 | 0.00 | 53 | 1012.1 |
| 20260905141553 | 31 | 190 | 0.0 | 1.6 | 0.00 | 0.00 | 0.00 | 53 | 1012.1 |
| 20260905140050 | 30 | 314 | 0.0 | 0.0 | 0.00 | 0.00 | 0.00 | 59 | 1012.1 |
| 20260905134557 | 30 | 314 | 0.0 | 0.0 | 0.00 | 0.00 | 0.00 | 58 | 1012.3 |
| 20260905133054 | 29 | 44 | 0.0 | 0.0 | 0.00 | 0.00 | 0.00 | 63 | 1012.4 |
| 20260905131542 | 28 | 190 | 0.0 | 0.0 | 0.00 | 0.00 | 0.00 | 66 | 1012.5 |
| 20260905130039 | 28 | 135 | 0.0 | 0.0 | 0.00 | 0.00 | 0.00 | 70 | 1012.5 |
| 20260905124540 | 26 | 134 | 0.0 | 0.0 | 0.00 | 0.00 | 0.00 | 76 | 1012.7 |